Temp
65 65 65 65 65 65 65 65 65 65 64 65 65 65 65 65 65 66 63 70 72 70 72 70 67 66 69 64 66 64 53 49 54 55 56 61 60 63 64 64 62 63 63 67 72
64 65 65 65 64 65 65 65 65 65 65 65 65 64 64 65 62 60 70 72 72 71 71 65 61 60 60 64 63 58 52 56 60 60 59 62 63 63 61 59 58 61 66 70 71
64 64 64 65 65 65 65 65 64 64 64 64 64 64 64 65 60 61 71 71 72 70 75 66 61 58 54 62 59 58 54 59 62 63 66 63 59 63 59 55 60 60 63 65 65
63 63 64 64 64 65 65 64 64 64 64 64 64 63 63 63 47 68 71 71 71 71 72 63 56 53 54 56 63 54 61 62 63 61 63 62 64 61 59 60 66 66 67 64 64
62 62 63 63 64 64 65 64 64 63 63 63 63 63 61 54 57 71 69 70 70 69 67 64 54 54 56 59 60 56 57 61 61 61 62 64 59 60 58 59 64 64 66 64 63
61 61 62 62 63 64 64 64 64 63 63 63 63 63 55 48 69 71 69 68 69 68 67 67 63 65 61 60 58 61 60 58 58 58 61 60 56 59 58 61 63 63 62 63 65
61 61 61 62 63 63 64 63 63 62 63 63 63 62 54 56 68 69 69 67 70 69 65 68 69 65 62 58 63 59 54 55 55 58 59 60 54 56 60 62 63 61 61 63 65
60 60 61 62 62 63 63 62 62 62 62 63 63 57 51 67 65 67 68 67 70 71 69 70 71 65 61 59 57 55 51 46 54 57 56 57 49 58 60 61 60 60 59 62 64
59 59 60 61 62 62 62 61 61 62 63 63 55 53 51 65 61 65 66 63 66 68 68 72 68 60 58 51 46 47 41 44 48 56 55 53 49 56 61 61 59 57 59 61 62
59 59 60 61 62 61 60 61 61 61 61 63 63 49 56 55 61 64 65 66 62 62 61 61 58 52 48 44 38 40 40 45 45 53 51 49 48 54 59 59 59 59 57 58 60
59 60 60 61 62 61 59 56 49 48 52 48 50 52 56 60 64 61 65 63 61 56 49 54 48 45 48 50 51 51 47 46 47 52 50 49 49 53 56 55 57 55 56 57 59
59 59 60 61 62 61 59 51 53 55 44 55 55 57 59 61 53 57 64 56 53 47 51 49 45 53 55 55 54 49 46 42 46 50 49 48 50 52 54 55 57 57 56 58 55
58 59 60 60 61 58 55 55 66 64 48 53 56 56 56 59 53 53 60 56 51 48 48 46 50 56 54 51 50 50 46 43 46 47 47 45 44 49 54 54 54 54 56 56 55
58 58 60 60 55 56 52 62 63 60 41 45 50 55 57 57 50 58 60 57 52 49 49 48 54 53 51 49 52 46 53 49 46 45 39 45 35 43 48 50 51 53 52 54 55
58 57 58 61 57 51 58 61 61 58 25 48 48 60 57 53 52 51 57 55 50 50 50 45 48 49 47 51 54 48 51 49 46 44 39 38 36 41 45 46 50 51 52 52 53
57 57 59 57 56 58 60 59 57 37 25 41 47 47 47 49 49 51 53 54 55 51 49 47 51 52 52 50 54 53 49 47 44 41 32 37 37 38 42 48 48 48 50 50 49
54 57 56 58 51 60 57 52 34 27 46 38 40 46 45 42 44 46 47 44 43 39 38 43 43 47 51 48 49 49 43 31 30 29 29 31 33 42 47 51 51 50 48 48 48
52 57 55 53 55 59 54 42 26 36 39 46 44 45 41 44 41 44 43 40 45 46 40 36 35 45 49 48 44 42 43 30 23 24 29 33 32 42 47 51 51 52 49 48 47
53 51 50 49 54 57 47 31 31 38 45 43 44 40 37 42 42 40 41 45 46 47 41 38 38 45 47 48 52 42 39 45 33 18 26 32 37 46 45 46 47 47 48 46 47
44 45 44 49 51 52 41 35 40 49 49 47 37 41 33 40 37 37 39 46 45 49 49 46 35 41 44 47 47 45 50 38 35 24 21 29 30 37 40 44 45 45 46 45 46
42 38 43 48 51 45 34 38 45 51 52 45 40 38 39 38 38 37 39 44 50 50 52 45 41 36 42 41 41 42 41 42 42 34 24 22 32 43 46 48 46 47 48 47 46
39 32 43 47 39 38 35 41 48 48 50 47 47 45 43 41 36 38 38 44 54 53 46 45 39 31 37 41 43 43 44 43 35 33 31 30 34 46 47 47 49 47 49 47 48
33 34 44 43 31 32 38 43 45 46 47 46 45 46 46 42 37 39 42 44 49 51 47 46 36 26 33 40 41 41 43 46 43 34 29 26 34 46 45 45 48 47 46 48 47
37 32 35 36 34 35 34 38 39 46 46 48 45 46 45 42 43 40 40 41 45 49 48 50 40 37 34 37 40 36 40 42 43 30 32 33 42 44 44 45 46 47 48 48 47
37 32 35 29 32 33 37 37 37 37 43 44 41 43 43 37 40 40 39 39 42 45 47 47 33 37 39 43 42 41 42 41 41 47 39 46 43 46 47 47 49 51 49 48 47
33 31 35 33 34 33 34 33 38 35 38 38 38 42 44 39 41 37 40 40 39 40 42 43 32 37 32 41 42 38 41 44 46 46 45 47 45 52 51 50 48 50 49 48 49
37 39 37 34 32 31 31 33 36 40 36 37 37 40 40 42 42 41 47 45 44 41 39 39 34 30 32 32 34 31 37 41 44 48 48 42 50 48 48 50 50 50 50 50 50
MSLP
1008.38 1008.83 1009.39 1009.97 1010.40 1010.76 1011.52 1012.25 1012.62 1013.10 1013.68 1014.41 1014.67 1014.85 1015.02 1014.95 1014.95 1014.96 1014.76 1014.42 1014.53 1014.68 1014.94 1015.51 1016.14 1015.86 1015.76 1015.28 1014.48 1014.33 1014.88 1015.03 1014.76 1014.68 1014.52 1014.34 1014.59 1014.88 1015.09 1015.47 1016.14 1016.56 1017.00 1017.40 1018.30
1008.05 1008.34 1008.96 1009.67 1010.11 1010.70 1010.97 1011.80 1012.29 1012.54 1013.45 1014.05 1014.24 1014.75 1014.93 1014.72 1014.96 1014.82 1014.29 1014.26 1014.39 1014.77 1014.81 1015.83 1017.29 1017.63 1016.73 1015.68 1014.90 1014.71 1014.91 1014.54 1014.23 1013.87 1014.20 1014.37 1014.59 1014.97 1015.60 1016.25 1017.12 1017.32 1017.27 1017.96 1018.43
1007.49 1007.95 1008.91 1009.46 1010.03 1010.39 1010.71 1011.36 1011.88 1012.33 1013.26 1013.87 1014.15 1014.70 1015.01 1014.65 1014.87 1014.04 1013.81 1014.11 1014.19 1014.74 1014.63 1016.05 1017.55 1018.64 1018.26 1016.17 1015.17 1014.76 1014.63 1014.06 1014.10 1013.51 1013.63 1014.50 1014.93 1014.91 1015.76 1016.59 1016.88 1017.47 1017.84 1018.40 1018.79
1007.23 1007.67 1008.55 1009.17 1009.78 1010.10 1010.70 1011.04 1011.51 1012.23 1013.07 1013.83 1014.16 1014.71 1014.87 1014.47 1014.59 1012.85 1013.30 1013.65 1014.16 1014.52 1014.88 1016.06 1018.08 1018.91 1018.30 1016.34 1015.15 1014.86 1014.23 1014.05 1014.11 1013.97 1014.02 1014.59 1014.93 1015.35 1015.85 1016.12 1016.04 1016.91 1017.27 1018.21 1018.96
1006.93 1007.47 1008.28 1008.98 1009.56 1009.98 1010.45 1011.09 1011.42 1012.02 1012.82 1013.65 1014.12 1014.59 1014.87 1015.37 1014.11 1012.85 1012.80 1013.15 1013.94 1014.83 1014.74 1015.44 1017.26 1017.86 1017.33 1015.86 1015.38 1014.90 1014.53 1014.42 1014.34 1014.15 1014.15 1014.57 1015.14 1015.52 1016.15 1016.27 1016.19 1017.16 1017.61 1018.25 1018.71
1006.65 1007.38 1007.90 1008.75 1009.27 1009.70 1010.35 1010.95 1011.49 1012.31 1012.66 1013.46 1014.06 1014.33 1014.95 1014.52 1012.79 1012.40 1012.87 1013.29 1013.32 1014.24 1014.37 1014.55 1015.61 1016.30 1015.82 1015.55 1015.34 1014.57 1014.66 1014.81 1014.81 1014.67 1014.42 1014.94 1015.41 1015.52 1016.36 1016.45 1016.78 1017.10 1017.78 1018.20 1018.44
1006.57 1007.20 1007.76 1008.43 1009.05 1009.61 1010.35 1011.07 1011.26 1012.24 1013.06 1013.15 1014.07 1014.64 1014.65 1013.20 1012.56 1012.57 1012.83 1013.09 1013.17 1013.75 1014.03 1014.02 1014.21 1015.12 1015.03 1014.92 1014.59 1014.77 1015.18 1015.32 1015.34 1015.16 1014.96 1015.04 1015.95 1015.91 1015.96 1016.55 1017.02 1017.48 1017.79 1017.93 1018.03
1006.44 1006.96 1007.41 1008.20 1008.63 1009.30 1010.48 1011.02 1011.19 1011.93 1013.54 1013.47 1014.44 1014.84 1014.22 1012.58 1012.48 1012.80 1013.10 1013.34 1013.51 1013.79 1013.91 1013.55 1013.88 1014.41 1014.76 1014.54 1014.69 1015.12 1015.52 1015.98 1015.79 1015.57 1015.49 1015.38 1015.91 1015.98 1016.03 1016.58 1017.07 1017.29 1017.84 1017.87 1017.87
1005.88 1006.57 1007.09 1007.70 1008.17 1009.27 1010.34 1011.05 1011.30 1012.21 1013.76 1013.73 1014.90 1014.79 1013.91 1012.37 1012.28 1012.63 1012.84 1013.07 1013.43 1013.77 1013.56 1013.19 1013.56 1014.34 1014.81 1015.13 1015.59 1015.65 1015.80 1015.96 1016.08 1015.81 1015.84 1015.80 1016.09 1016.05 1016.11 1016.62 1017.11 1017.24 1017.62 1017.65 1017.58
1005.23 1006.10 1006.86 1007.52 1008.05 1009.33 1010.48 1011.04 1011.48 1012.80 1013.96 1014.34 1014.27 1014.73 1013.32 1012.35 1012.31 1012.49 1012.57 1012.87 1013.33 1013.86 1013.71 1013.67 1014.00 1014.65 1014.99 1015.44 1015.57 1015.86 1015.98 1015.99 1016.13 1016.22 1016.22 1016.34 1016.27 1016.33 1016.29 1016.71 1016.93 1017.07 1017.40 1017.73 1017.61
1004.64 1005.40 1006.40 1007.24 1007.78 1009.00 1010.36 1010.63 1012.09 1013.42 1012.93 1012.76 1012.46 1012.35 1011.60 1011.77 1011.89 1012.42 1012.66 1013.09 1013.40 1013.60 1013.81 1013.89 1014.48 1014.24 1014.51 1015.20 1015.24 1015.52 1015.76 1016.18 1016.35 1016.07 1016.35 1016.46 1016.64 1016.53 1016.39 1016.90 1016.83 1017.21 1017.27 1017.70 1017.70
1003.69 1004.77 1006.18 1006.93 1007.45 1008.65 1009.30 1009.36 1008.98 1009.44 1012.37 1012.24 1012.04 1011.77 1011.65 1011.47 1011.98 1012.40 1012.45 1012.82 1013.47 1013.44 1014.26 1014.12 1013.81 1014.18 1014.21 1014.82 1015.14 1015.49 1015.80 1016.37 1016.81 1016.55 1016.65 1016.88 1016.89 1016.59 1016.71 1016.72 1016.48 1016.83 1017.23 1017.49 1017.99
1003.23 1004.48 1005.55 1006.57 1007.52 1008.75 1009.11 1008.39 1008.44 1008.73 1010.81 1011.46 1011.48 1011.55 1011.48 1011.53 1011.74 1012.01 1012.11 1012.46 1013.36 1013.48 1013.88 1013.54 1013.88 1013.91 1014.23 1014.67 1015.12 1015.42 1015.56 1016.32 1016.55 1017.06 1017.14 1017.27 1017.48 1016.96 1016.46 1016.49 1016.61 1016.63 1017.08 1017.52 1018.01
1003.34 1004.15 1005.05 1006.27 1007.98 1008.21 1008.96 1008.31 1008.61 1008.91 1009.98 1010.96 1010.81 1010.63 1010.84 1011.16 1011.82 1011.73 1011.94 1012.03 1012.64 1013.22 1013.88 1013.86 1013.52 1013.54 1013.98 1014.26 1014.68 1015.20 1014.89 1015.71 1016.47 1017.34 1017.74 1017.55 1017.70 1016.80 1016.41 1016.57 1016.86 1017.00 1017.20 1017.85 1018.09
1002.82 1003.44 1004.74 1005.43 1006.05 1007.64 1008.00 1008.77 1008.90 1009.05 1009.98 1009.94 1010.27 1009.80 1010.30 1011.15 1011.28 1011.98 1011.98 1011.76 1012.03 1012.52 1013.24 1013.60 1013.57 1013.45 1013.72 1013.63 1014.12 1014.89 1014.92 1015.75 1016.82 1017.70 1018.04 1018.30 1018.45 1016.55 1016.47 1017.03 1016.99 1016.99 1017.29 1018.10 1018.49
1002.31 1003.40 1004.59 1005.66 1006.61 1007.28 1008.18 1008.89 1009.19 1010.08 1009.40 1009.60 1009.67 1009.85 1010.71 1011.11 1011.23 1011.98 1012.12 1011.86 1011.83 1012.50 1013.08 1013.68 1013.69 1013.39 1013.32 1013.68 1013.92 1014.79 1015.45 1016.58 1017.65 1018.80 1019.31 1018.51 1018.43 1016.99 1016.53 1015.96 1016.25 1016.89 1017.43 1018.11 1018.60
1003.19 1002.78 1004.25 1005.04 1005.91 1006.79 1008.29 1009.24 1010.06 1009.66 1008.65 1009.43 1009.70 1009.58 1010.39 1011.09 1011.68 1011.92 1011.92 1011.87 1011.45 1012.46 1013.10 1013.96 1014.28 1013.86 1013.51 1014.03 1014.64 1014.63 1016.13 1018.11 1019.41 1020.05 1019.60 1019.08 1018.76 1016.80 1015.72 1015.30 1015.32 1016.27 1017.68 1018.41 1018.76
1003.13 1003.12 1004.31 1005.55 1005.41 1006.81 1008.23 1009.25 1009.86 1008.17 1007.76 1008.02 1008.72 1009.68 1010.31 1010.80 1011.75 1011.86 1012.09 1011.94 1011.49 1011.82 1013.11 1013.82 1014.59 1014.12 1013.56 1013.47 1014.02 1015.05 1015.57 1017.18 1018.97 1020.36 1020.16 1019.52 1018.18 1016.09 1015.49 1015.21 1015.21 1016.05 1017.28 1018.38 1019.01
1002.56 1003.32 1004.29 1005.76 1005.51 1006.60 1007.75 1008.36 1006.14 1006.33 1006.79 1007.18 1008.44 1009.44 1010.16 1010.40 1010.80 1011.69 1011.60 1011.27 1010.88 1011.06 1011.72 1012.77 1013.97 1013.96 1013.96 1013.52 1013.45 1014.79 1015.44 1016.29 1018.49 1020.65 1020.39 1019.05 1017.47 1015.93 1015.60 1015.71 1015.99 1016.69 1017.62 1018.47 1019.30
1004.13 1004.15 1005.67 1006.03 1005.91 1006.42 1007.27 1006.21 1005.79 1005.29 1006.00 1006.49 1007.42 1008.41 1009.02 1009.79 1010.41 1010.71 1011.16 1010.58 1010.34 1010.44 1010.73 1011.81 1013.90 1014.36 1014.49 1013.85 1013.98 1013.81 1014.61 1016.17 1017.52 1019.59 1020.25 1018.57 1017.66 1015.94 1015.88 1015.74 1016.28 1016.94 1017.62 1018.49 1019.21
1004.22 1004.95 1006.48 1006.33 1005.78 1006.93 1005.52 1005.34 1005.29 1004.57 1004.76 1005.62 1006.56 1007.72 1008.25 1009.07 1009.75 1010.28 1010.52 1009.69 1009.92 1010.19 1010.64 1011.38 1012.55 1015.01 1014.94 1014.31 1013.91 1014.51 1014.43 1015.26 1016.39 1017.68 1018.05 1017.93 1016.37 1014.35 1014.02 1014.49 1015.36 1016.31 1017.15 1018.08 1018.85
1006.34 1006.62 1006.89 1006.61 1005.97 1006.61 1006.16 1005.67 1005.31 1004.88 1004.84 1005.15 1005.44 1006.28 1007.09 1008.66 1009.26 1009.68 1009.64 1009.16 1009.06 1009.34 1010.60 1011.49 1013.00 1014.85 1014.86 1014.44 1014.16 1014.06 1013.88 1014.52 1015.65 1016.79 1017.13 1016.83 1014.95 1013.63 1013.71 1013.89 1014.53 1015.68 1016.76 1017.78 1018.66
1006.33 1006.90 1006.54 1006.39 1006.52 1006.72 1006.57 1006.44 1005.67 1005.08 1005.02 1005.21 1005.50 1005.66 1006.19 1007.74 1009.02 1009.21 1009.25 1009.20 1009.08 1009.41 1009.78 1010.95 1012.57 1014.70 1015.31 1015.09 1014.37 1013.95 1013.86 1013.87 1014.39 1015.43 1016.20 1016.41 1014.27 1013.35 1013.31 1013.57 1014.17 1015.10 1016.36 1017.37 1018.40
1006.56 1007.26 1007.69 1007.25 1007.30 1006.59 1006.57 1006.66 1006.11 1005.48 1005.42 1005.40 1005.79 1005.84 1006.44 1007.45 1007.85 1008.76 1009.51 1009.67 1009.42 1009.38 1009.60 1010.17 1011.82 1012.40 1012.83 1012.52 1012.95 1013.73 1013.28 1013.50 1013.94 1015.07 1014.76 1014.29 1013.14 1012.95 1013.22 1013.51 1014.19 1014.89 1015.71 1016.72 1017.88
1006.56 1007.45 1007.58 1007.56 1007.53 1007.07 1006.95 1006.58 1006.63 1006.32 1006.00 1006.11 1006.35 1006.20 1006.52 1007.47 1008.18 1008.63 1009.36 1010.04 1010.08 1010.01 1010.05 1010.54 1011.88 1012.51 1012.47 1012.41 1012.26 1011.90 1012.28 1012.93 1013.49 1012.92 1013.58 1011.95 1011.86 1012.16 1012.42 1012.74 1013.26 1014.05 1015.40 1016.40 1017.40
1007.05 1007.65 1007.75 1007.82 1007.82 1007.55 1007.37 1007.39 1006.79 1007.28 1007.00 1007.35 1007.24 1007.17 1007.24 1007.60 1007.70 1008.24 1008.58 1009.53 1009.89 1010.73 1010.48 1010.86 1011.62 1012.38 1013.06 1013.08 1012.54 1012.19 1011.99 1012.00 1012.02 1011.56 1012.07 1011.02 1010.76 1010.88 1011.31 1012.39 1013.44 1013.76 1014.65 1015.44 1016.34
1007.30 1007.18 1007.02 1008.00 1008.26 1007.72 1007.88 1007.67 1007.21 1007.89 1008.70 1008.49 1008.50 1008.54 1008.46 1008.51 1008.34 1008.52 1008.17 1008.91 1009.26 1010.15 1010.97 1011.74 1012.55 1013.49 1014.17 1013.91 1013.66 1013.16 1011.16 1011.21 1011.12 1010.67 1010.34 1010.55 1008.82 1010.71 1010.98 1011.47 1011.97 1012.89 1013.55 1013.98 1014.70
Wind_Speed
19 18 16 16 14 13 16 13 16 15 14 11 9 6 7 5 5 2 4 5 5 14 9 4 10 11 10 4 2 3 3 1 4 7 6 5 5 3 2 7 5 3 6 11 15
19 18 17 16 16 14 16 14 14 12 13 13 11 7 6 4 4 1 5 1 5 10 8 7 6 9 7 6 3 3 3 5 4 7 7 7 6 7 6 5 6 7 11 14 14
18 17 18 16 16 15 16 14 13 13 11 12 11 11 8 3 3 6 10 10 6 9 11 9 10 4 8 3 3 3 5 2 3 1 10 10 4 4 10 2 7 16 13 11 9
18 18 17 16 13 16 14 14 15 14 12 12 13 11 8 5 10 3 16 15 16 6 6 18 7 3 7 5 5 2 4 1 4 1 6 9 7 6 3 5 9 15 18 10 10
17 16 16 16 15 15 16 13 15 15 13 13 14 15 6 1 7 4 10 10 12 7 8 15 9 8 14 5 4 4 2 3 1 6 8 8 5 5 6 3 8 11 13 13 10
16 17 16 16 16 15 15 16 15 13 14 15 15 14 3 5 4 5 7 8 9 12 10 9 17 19 6 8 7 7 4 4 1 1 4 8 3 4 4 6 10 12 11 11 12
14 17 18 16 17 16 16 16 17 14 12 16 16 7 3 9 4 6 9 6 7 9 8 7 6 8 3 3 7 7 6 3 1 3 4 8 3 4 5 7 10 9 9 10 11
17 17 17 17 17 17 17 17 17 16 10 15 15 3 6 1 5 5 4 6 6 8 3 6 6 6 3 2 3 6 6 5 4 5 2 3 5 5 7 9 9 9 8 8 9
17 18 16 17 17 19 19 17 17 15 10 14 6 4 7 2 3 5 5 7 8 5 3 5 7 5 3 5 3 1 5 4 2 2 3 1 3 3 7 7 8 8 9 8 7
18 20 19 18 20 21 21 17 19 15 9 6 2 2 6 6 5 7 5 7 5 6 4 4 4 5 3 4 9 5 3 3 6 7 2 3 3 5 5 7 9 8 8 8 8
22 22 21 20 24 26 21 14 9 5 7 9 10 5 5 5 5 4 6 6 6 3 6 5 5 11 9 7 5 5 5 7 1 4 5 8 5 7 8 5 7 6 9 9 9
25 25 24 23 25 25 14 7 6 11 6 15 6 4 2 3 5 5 7 7 7 6 5 4 13 9 9 9 9 5 6 4 2 1 3 6 10 6 7 7 8 9 8 8 6
24 26 27 25 26 16 12 4 11 12 7 4 6 8 5 4 5 11 12 6 7 7 7 9 6 7 7 7 8 6 6 6 7 4 1 4 6 6 7 5 4 4 6 6 10
26 26 26 26 17 12 12 14 6 2 5 5 6 6 5 5 4 4 7 6 5 14 7 5 4 12 7 8 9 7 5 7 12 6 5 5 6 6 7 7 7 7 7 7 7
28 26 25 24 14 13 13 5 2 3 7 11 7 5 8 7 10 4 2 1 8 7 7 6 7 7 6 8 6 5 7 9 5 4 6 3 3 8 7 6 9 9 8 8 8
21 31 29 11 8 15 4 6 4 4 6 7 7 10 10 4 3 6 5 1 3 6 5 2 3 4 7 3 6 9 8 9 5 3 1 5 6 6 6 10 6 5 7 9 9
4 30 25 7 10 16 7 4 5 5 5 8 7 10 12 7 5 5 11 7 8 9 5 2 1 1 3 8 5 6 5 3 3 1 7 2 2 9 6 8 8 12 10 9 9
23 31 12 1 7 16 6 7 5 11 8 5 9 15 10 8 2 8 9 7 6 6 7 8 5 7 3 8 10 7 7 8 7 5 5 2 8 8 3 6 5 10 10 8 8
2 6 7 4 6 12 12 15 11 10 7 9 11 18 6 6 9 6 11 17 9 9 7 7 2 2 3 1 10 6 5 6 8 3 4 5 6 7 2 2 6 10 10 9 8
2 5 4 5 3 11 14 17 4 9 10 11 8 7 8 16 6 7 15 11 6 9 3 6 6 2 2 1 3 6 8 4 3 6 5 4 5 6 6 10 7 10 11 9 8
6 5 3 5 3 12 20 18 9 3 14 8 7 7 7 11 7 10 15 4 14 12 7 3 6 1 2 5 8 3 4 3 6 6 7 2 8 9 14 17 18 14 14 13 11
2 3 4 3 7 8 13 7 3 4 4 3 6 5 12 11 5 10 13 6 17 17 10 2 6 5 5 2 2 0 6 5 6 6 1 4 8 3 6 11 16 15 13 10 12
2 2 3 3 7 10 5 18 2 4 4 3 3 3 4 11 6 6 7 2 4 14 15 9 2 5 5 3 1 6 5 6 5 4 7 7 8 2 4 7 10 16 11 13 12
2 2 2 3 2 7 6 23 8 1 4 3 4 4 5 8 2 10 6 1 4 7 9 10 3 8 12 7 8 8 7 6 6 4 4 8 10 5 5 9 9 11 13 15 15
3 1 1 3 2 5 8 12 17 4 3 3 2 4 6 6 6 6 5 3 5 2 6 7 7 5 1 4 4 6 15 12 9 19 8 23 12 8 9 11 16 13 12 15 16
2 3 2 3 2 6 4 6 25 3 4 3 4 7 3 6 8 8 9 5 6 1 5 1 4 6 3 6 5 4 8 16 20 21 13 17 16 9 7 7 9 16 18 18 19
1 2 3 5 1 3 3 3 14 9 1 5 4 2 4 2 4 2 4 7 11 10 6 8 6 5 11 1 6 3 16 14 12 17 20 19 27 5 8 14 17 15 18 22 22
Wind_Direction
192 187 186 185 176 168 178 191 190 179 175 164 166 163 129 118 168 112 178 189 195 165 114 75 28 334 326 292 299 26 74 289 250 149 180 169 119 21 38 93 50 40 148 151 151
193 188 187 191 174 175 170 180 183 180 172 163 156 149 123 104 80 262 261 215 193 174 109 103 110 336 329 303 299 101 131 223 277 148 159 145 126 137 93 93 48 60 81 128 142
191 184 192 184 181 180 168 177 163 154 154 156 158 148 145 174 31 232 207 218 235 229 119 99 84 60 296 302 258 205 191 228 350 24 137 140 120 132 127 161 182 150 142 144 146
188 180 189 177 185 176 170 166 156 151 151 153 146 150 133 30 201 186 182 195 201 211 153 102 93 123 259 247 251 229 255 207 170 357 115 140 149 125 158 188 170 162 152 146 155
186 178 180 174 173 175 162 165 151 149 150 151 142 139 100 135 237 203 195 177 160 178 192 148 146 193 237 232 264 208 161 47 54 102 124 109 117 142 134 139 120 136 147 157 159
182 179 174 174 170 169 161 156 144 146 152 149 148 149 143 211 202 158 151 146 164 178 205 158 176 203 203 211 180 206 151 130 282 103 88 119 111 116 177 148 112 142 161 166 171
188 180 173 172 170 163 159 151 139 138 158 147 158 158 270 235 153 150 147 179 162 188 177 193 195 183 210 254 216 148 105 94 169 268 123 119 63 202 164 159 141 152 177 179 186
189 179 173 173 168 157 151 141 133 134 161 147 154 173 239 237 147 125 174 153 182 217 244 185 160 161 180 261 82 135 90 132 238 178 281 109 200 226 176 153 170 169 200 189 203
182 177 172 168 162 149 141 133 123 126 148 133 120 171 256 63 126 184 172 147 128 220 251 131 117 171 129 132 41 286 172 151 184 213 164 164 176 194 180 169 187 188 193 196 184
183 168 172 166 155 141 131 120 114 112 137 180 238 153 221 207 174 155 185 148 143 147 79 125 115 149 129 121 192 169 158 151 168 212 144 173 142 190 206 180 204 195 188 190 191
179 167 167 165 152 139 128 120 108 142 199 197 177 229 112 139 110 158 159 145 114 114 158 195 144 198 174 160 192 165 189 169 237 193 131 195 172 207 206 211 197 191 164 182 190
168 165 169 164 156 148 151 184 171 142 133 261 254 210 125 146 114 172 133 144 143 161 171 139 215 190 160 176 218 180 206 152 18 20 116 176 236 223 193 217 196 181 194 185 152
165 166 167 163 154 149 181 207 176 136 136 223 201 186 187 147 161 189 157 167 156 175 194 164 195 179 164 180 197 192 176 182 163 161 55 118 299 205 237 197 172 168 139 151 172
174 168 164 157 151 159 191 218 88 257 114 193 201 202 138 172 154 167 207 155 161 190 167 178 216 173 163 182 157 204 182 149 138 124 200 150 258 240 208 188 194 190 170 174 145
168 163 171 161 134 169 193 221 127 50 148 173 172 157 153 169 140 216 207 121 171 166 145 204 170 142 171 183 158 195 139 142 135 114 109 212 119 264 132 198 217 210 196 196 181
177 163 166 157 126 168 153 170 80 104 224 175 149 162 148 169 145 137 158 158 164 133 58 134 264 144 173 79 141 145 88 47 62 80 280 228 159 267 190 200 204 190 189 166 149
271 162 159 164 151 156 157 121 95 194 204 171 183 167 161 150 128 178 169 179 159 136 138 85 341 266 162 83 11 109 111 55 26 359 224 359 195 250 236 223 198 180 172 167 145
313 160 148 45 131 154 154 127 177 193 205 136 145 148 166 131 143 175 137 188 241 135 138 154 207 185 200 166 171 167 152 146 172 189 218 341 226 243 237 301 176 159 156 152 152
15 119 112 3 121 157 155 183 195 170 173 139 116 154 166 178 136 145 192 196 187 178 152 144 195 357 53 42 147 207 181 159 102 21 70 218 285 305 266 99 148 152 153 155 148
325 89 58 337 78 164 170 201 175 166 139 134 146 181 162 171 136 167 173 201 203 178 189 185 114 10 308 97 11 164 153 99 7 137 231 268 269 235 233 210 181 167 163 159 152
8 69 2 323 101 167 199 190 173 59 143 137 154 152 168 176 150 175 183 240 187 198 156 134 102 289 151 208 166 149 182 169 129 152 166 152 256 216 207 192 187 181 174 168 160
80 107 313 307 154 189 198 180 258 139 71 127 132 129 168 163 145 180 192 192 192 170 171 145 113 138 214 229 249 2 203 153 155 223 239 146 266 193 217 195 176 178 173 161 159
66 71 321 310 157 177 165 210 313 145 150 124 121 120 140 162 168 165 171 233 164 168 170 178 134 91 12 345 295 206 200 204 110 79 198 145 255 265 278 160 175 168 167 163 154
114 107 42 17 71 163 145 192 209 134 95 131 120 101 117 158 152 179 151 340 347 175 143 114 131 168 189 191 140 188 192 197 162 124 190 225 244 241 199 177 175 173 167 163 161
50 45 1 147 128 118 168 182 204 198 109 42 89 173 152 143 154 169 132 124 20 347 132 123 178 175 274 145 151 166 185 175 192 225 179 239 233 226 209 192 191 174 161 164 172
121 152 119 62 101 117 119 199 202 180 153 219 145 190 156 147 186 177 128 162 176 330 142 73 231 137 259 208 218 195 205 192 204 225 231 252 272 186 189 153 158 176 174 181 184
292 337 90 127 156 93 133 143 200 154 85 73 54 19 169 69 80 2 128 142 152 151 153 145 133 111 234 111 95 312 210 197 207 217 215 232 240 133 198 194 188 182 185 189 191